Volver al catálogo

YAM-15

ActivoComunicacionesSSO
NORAD 68997·PAYLOAD·🇮🇳 India

Lanzado May 3, 2026 desde Vandenberg Space Force Base

Loading…

Próximos Pases (próximas 24 horas)

TLE

ActualizadoSource: Space-Track

Época: Sep 14, 2026, 22:57 UTC

1 68997U 26100T   26257.95653695  .00001229  00000-0  13176-3 0  9993
2 68997  97.7764 153.9169 0001933  82.8122 277.3316 14.90430650 20074

Sigue YAM-15 en tiempo real con AllMySat

Download on the App Store